Regional Weather Roundup
Issued by NWS Goodland, KS

Home | Current Version | Previous Version | Graphics & Text | Print | Product List | Glossary On
Versions: 1 2 3 4 5 6 7 8 9 10 11 12 13 14 15 16 17 18 19 20 21 22 23 24 25 26 27 28 29 30 31 32 33 34 35 36 37 38 39 40 41 42 43 44 45 46 47 48 49 50
000
ASUS43 KGLD 120308
RWRGLD

GOODLAND FORECAST AREA HOURLY WEATHER ROUNDUP
NATIONAL WEATHER SERVICE GOODLAND KS
800 PM MST MON DEC 11 2017

...OFFICIAL OBSERVATIONS...

CITY           SKY/WX    TMP DP  RH WIND       PRES   REMARKS
GOODLAND KS    CLEAR     32  11  41 N10       30.40R
HILL CITY KS   CLEAR     36  26  67 W3        30.38S
IMPERIAL NEB   CLEAR     31  20  63 NW8       30.40R
MCCOOK NEB     CLEAR     30  22  72 NW9       30.39R
AKRON CO       CLOUDY    32   8  36 N13       30.41R
BURLINGTON CO  CLEAR     33  10  38 NW6       30.41R
LIMON CO       CLOUDY    21   5  50 NW6       30.45R
$$

...UNOFFICIAL OBSERVATIONS...

CITY           SKY/WX    TMP DP  RH WIND       PRES   REMARKS
COLBY KS       CLEAR     37  27  65 N12       30.41R
LENORA KS        N/A     34  32  92 N6          N/A
NORTON KS      CLEAR     30  19  64 NW9       30.36
SHARON SPRINGS   N/A     34  11  38 N8          N/A
TRIBUNE KS     CLEAR     37  10  32 N10       30.42R
TRENTON NEB      N/A     31  32 100 CALM        N/A
KIT CARSON CO    N/A     34   9  35 MISG        N/A
YUMA CO        FAIR      37  12  35 NW10      30.41S
$$




USA.gov is the U.S. government's official web portal to all federal, state and local government web resources and services.